This demonstration page uses our WeatherBlox Daily Observations layout. Learn more.

Left ArrowRight Arrow

Hourly Observations for June 29, 2017

Temp ( °F °C ) Dew Point ( °F °C ) Humidity (%) Winds ( mph kmh ) Pressure ( in mb ) Visibility ( mi km ) Precip ( " mm )
12:56 am 00:56 Clear 69 20.8 67 19.6 93 93 Calm 29.70 1006 10 16 0.00 0.00
1:56 am 01:56 Clear 68 20.1 67 19.4 96 96 NNE 5 7 29.70 1006 10 16 0.00 0.00
2:56 am 02:56 Clear 68 19.9 67 19.4 97 97 Calm 29.70 1006 10 16 0.00 0.00
3:56 am 03:56 Mostly Clear 69 20.8 67 19.6 93 93 SE 5 7 29.73 1007 10 16 0.00 0.00
4:56 am 04:56 Clear 72 22.3 69 20.7 91 91 SE 10 17 29.71 1006 10 16 0.00 0.00
5:56 am 05:56 Mostly Cloudy 71 21.9 69 20.3 91 91 SE 8 13 29.73 1007 10 16 0.00 0.00
6:56 am 06:56 Sunny 69 20.5 67 19.3 93 93 S 6 9 29.71 1006 10 16 0.00 0.00
7:56 am 07:56 Mostly Sunny 71 21.8 67 19.3 86 86 S 7 11 29.76 1008 10 16 0.00 0.00
8:56 am 08:56 Sunny 72 22.1 65 18.3 79 79 SW 8 13 29.82 1010 10 16 0.00 0.00
9:56 am 09:56 Mostly Sunny 71 21.5 63 17.1 76 76 E 7 11 29.70 1006 10 16 0.00 0.03
10:56 am 10:56 Partly Cloudy 72 22.2 64 17.7 76 76 E 7 11 29.71 1006 10 16 0.00 0.00
11:56 am 11:56 Mostly Sunny 74 23.6 63 17.3 68 68 S 13 20 29.79 1009 10 16 0.00 0.00
12:56 pm 12:56 Sunny 76 24.5 64 17.7 66 66 S 10 17 29.80 1009 10 16 0.00 0.00
1:56 pm 13:56 Sunny 78 25.5 66 18.7 66 66 SSE 12 19 29.81 1010 10 16 0.00 0.00
2:56 pm 14:56 Mostly Sunny 79 25.9 66 18.8 65 65 SSW 10 17 29.80 1009 10 16 0.00 0.00
3:56 pm 15:56 Partly Cloudy 81 27.4 67 19.4 62 62 S 9 15 29.80 1009 10 16 0.00 0.00
4:56 pm 16:56 Sunny 82 27.7 68 20 63 63 SSE 13 20 29.77 1008 10 16 0.00 0.00
5:56 pm 17:56 Mostly Sunny 82 27.9 68 20.2 63 63 SSE 10 17 29.75 1008 10 16 0.00 0.00
6:56 pm 18:56 Sunny 82 27.8 68 20.1 63 63 SSE 9 15 29.76 1008 10 16 0.00 0.00
7:56 pm 19:56 Sunny 80 26.5 69 20.3 69 69 SE 9 15 29.77 1008 10 16 0.00 0.00
8:56 pm 20:56 Partly Cloudy 75 24.1 68 19.8 77 77 NE 15 24 29.80 1009 10 16 0.00 0.00
10:56 pm 22:56 Cloudy with Thunderstorms 68 20.1 63 17.1 83 83 S 8 13 29.85 1011 10 16 0.67 17.02
11:12 pm 23:12 Cloudy with Nearby Thunderstorms 66 19 63 17 88 88 E 7 11 29.84 1011 10 16 0.00 0.00
11:56 pm 23:56 Cloudy with Thunderstorms 66 18.8 63 17.3 91 91 SSW 5 7 29.83 1010 10 16 0.00 0.03

Powered by AerisWeather